Regional Weather Roundup
Issued by NWS

Home | Current Version | Previous Version | Text Only | Print | Product List | Glossary On
Versions: 1 2 3 4 5 6 7 8 9 10 11 12 13 14 15 16 17 18 19 20 21 22 23 24 25 26 27 28 29 30 31 32 33 34 35 36 37 38 39 40 41 42 43 44 45 46 47 48 49 50
000
ASUS43 KDTX 260010
RWRMI
MICHIGAN HOURLY REGIONAL WEATHER ROUNDUP
NATIONAL WEATHER SERVICE DETROIT/PONTIAC MI
ISSUED BY NATIONAL WEATHER SERVICE GRAND RAPIDS MI
800 PM EDT THU MAY 25 2017

NOTE: "FAIR" INDICATES FEW OR NO CLOUDS BELOW 12,000 FEET WITH NO
SIGNIFICANT WEATHER AND/OR OBSTRUCTION TO VISIBILITY.

MIZ047>049-052>055-059>063-066>070-074>076-081>083-260100-
SOUTHEAST LOWER MICHIGAN

CITY           SKY/WX    TMP DP  RH WIND       PRES   REMARKS
ADRIAN         CLOUDY    61  56  83 NW9       29.57R
6HR MIN TEMP:  60; 6HR MAX TEMP:  64;

ALMA           CLOUDY    59  56  88 NW7       29.59R
ANN ARBOR      CLOUDY    60  57  89 NW10      29.55R
BAD AXE        LGT RAIN  53  52  99 NE7       29.57R
6HR MIN TEMP:  53; 6HR MAX TEMP:  57;

DETROIT CITY   CLOUDY    58  57  97 NW8       29.54R
6HR MIN TEMP:  58; 6HR MAX TEMP:  61; 6HR PCP:  0.09;

DETROIT        CLOUDY    61  56  83 NW9       29.55R
6HR MIN TEMP:  61; 6HR MAX TEMP:  63; 6HR PCP:  0.07;

FLINT          CLOUDY    55  54  96 N10       29.57R
6HR MIN TEMP:  55; 6HR MAX TEMP:  58;

GROSSE ILE     CLOUDY    60  57  89 NW7       29.53R
6HR MIN TEMP:  60; 6HR MAX TEMP:  62; 6HR PCP:  0.06;

HILLSDALE      CLOUDY    59  54  82 NW7       29.59R
HOWELL         CLOUDY    60  55  82 NW5       29.56R
6HR MIN TEMP:  58; 6HR MAX TEMP:  61;


CITY           SKY/WX    TMP DP  RH WIND       PRES   REMARKS
JACKSON        CLOUDY    59  56  89 W6        29.58R
6HR MIN TEMP:  59; 6HR MAX TEMP:  62; 6HR PCP: TRACE;

LANSING        CLOUDY    62  54  74 NW7       29.58S
6HR MIN TEMP:  60; 6HR MAX TEMP:  64;

MASON          CLOUDY    59  56  90 NW9       29.58R
MONROE         CLOUDY    61  57  85 NW7       29.54R
6HR MIN TEMP:  60; 6HR MAX TEMP:  63; 6HR PCP:  0.02;

MT. CLEMENS    LGT RAIN  58  58 100 NW9       29.51R FOG
6HR MIN TEMP:  58; 6HR MAX TEMP:  60; 6HR PCP:  0.29;

PONTIAC        CLOUDY    57  54  89 NW12      29.54R
6HR MIN TEMP:  57; 6HR MAX TEMP:  61;

PORT HOPE        N/A     50  49  96 NE13      29.55R
6HR MIN TEMP:  50; 6HR MAX TEMP:  50; 6HR PCP:  0.13;

PORT HURON     DRIZZLE   55  52  88 N5        29.53R
TRI CITIES     CLOUDY    57  54  89 N12       29.59R
6HR MIN TEMP:  57; 6HR MAX TEMP:  62;

YPSILANTI      LGT RAIN  62  57  83 NW8       29.55R
6HR MIN TEMP:  62; 6HR MAX TEMP:  64; 6HR PCP:  0.02;

$$
MIZ043>046-050>051-056>058-064>065-071>073-077>080-260100-
SOUTHWEST LOWER MICHIGAN

CITY           SKY/WX    TMP DP  RH WIND       PRES   REMARKS
BATTLE CREEK   CLOUDY    62  57  83 W10       29.60R
6HR MIN TEMP:  60; 6HR MAX TEMP:  65;

BENTON HARBOR  SUNNY     53  48  83 W9        29.65R
6HR MIN TEMP:  53; 6HR MAX TEMP:  56;

BIG RAPIDS     CLOUDY    60  52  74 N3        29.60S
6HR MIN TEMP:  60; 6HR MAX TEMP:  64;

COLDWATER      CLOUDY    61  58  88 W9        29.60R
6HR MIN TEMP:  60; 6HR MAX TEMP:  63;

HOLLAND        MOSUNNY   62  52  69 NW8       29.62R
6HR MIN TEMP:  61; 6HR MAX TEMP:  68;

GRAND RAPIDS   CLOUDY    65  56  72 N8        29.59R
6HR MIN TEMP:  62; 6HR MAX TEMP:  69;

KALAMAZOO      PTSUNNY   64  55  72 W9        29.61R
6HR MIN TEMP:  61; 6HR MAX TEMP:  65; 6HR PCP: TRACE;

MARSHALL       LGT RAIN  60  59  96 CALM      29.59R
6HR MIN TEMP:  60; 6HR MAX TEMP:  63; 6HR PCP:  0.01;

MOUNT PLEASANT CLOUDY    59  52  76 N7        29.59R
6HR MIN TEMP:  59; 6HR MAX TEMP:  63;

MUSKEGON       PTSUNNY   66  54  65 NW8       29.61R
6HR MIN TEMP:  63; 6HR MAX TEMP:  71;

STURGIS        CLOUDY    61  56  84 NW8       29.61R
6HR MIN TEMP:  59; 6HR MAX TEMP:  64;

$$
MIZ016>042-260100-
NORTHERN LOWER MICHIGAN

CITY           SKY/WX    TMP DP  RH WIND       PRES   REMARKS
ALPENA         LGT RAIN  53  53 100 NE8       29.65R FOG
6HR MIN TEMP:  53; 6HR MAX TEMP:  54; 6HR PCP:  0.17;

BEAVER ISLAND  CLOUDY    56  54  92 NE5       29.69R
6HR MIN TEMP:  56; 6HR MAX TEMP:  66;

BELLAIRE       CLOUDY    58  52  79 N8G18     29.65R
6HR MIN TEMP:  58; 6HR MAX TEMP:  61;

CADILLAC       CLOUDY    58  52  79 N7        29.63R
CHARLEVOIX     CLOUDY    57  53  87 NE6       29.69S
6HR MIN TEMP:  51; 6HR MAX TEMP:  58;

GAYLORD        CLOUDY    55  50  83 NE10      29.65R
6HR MIN TEMP:  55; 6HR MAX TEMP:  57; 6HR PCP:  0.03;

HOUGHTON LAKE  CLOUDY    56  51  84 NE10      29.62R
6HR MIN TEMP:  55; 6HR MAX TEMP:  59;

MANISTEE       SUNNY     60  52  74 NW9       29.64R
OSCODA         RAIN      51  50  97 N10G16    29.60R
6HR MIN TEMP:  51; 6HR MAX TEMP:  52;

PELLSTON       CLOUDY    55  52  89 NE5       29.68R
6HR MIN TEMP:  55; 6HR MAX TEMP:  59; 6HR PCP:  0.02;

TRAVERSE CITY  CLOUDY    58  52  80 N9        29.63R
6HR MIN TEMP:  56; 6HR MAX TEMP:  63;

LUDINGTON      SUNNY     60  53  77 N15       29.64R
6HR MIN TEMP:  60; 6HR MAX TEMP:  67;

$$
MIZ007>008-015-260100-
EASTERN UPPER MICHIGAN

CITY           SKY/WX    TMP DP  RH WIND       PRES   REMARKS
KINROSS        CLOUDY    57  53  86 E8        29.70R
6HR MIN TEMP:  56; 6HR MAX TEMP:  62; 6HR PCP: TRACE;

MACKINAC ISLAN RAIN      54  54 100 NE9       29.68S
6HR MIN TEMP:  54; 6HR MAX TEMP:  58; 6HR PCP:  0.01;

NEWBERRY       MOSUNNY   58  54  85 NE8       29.70S
6HR MIN TEMP:  56; 6HR MAX TEMP:  65; 6HR PCP:  0.01;

S. S. MARIE    CLOUDY    60  54  80 NE3       29.69S
6HR MIN TEMP:  59; 6HR MAX TEMP:  65; 6HR PCP:  0.02;

$$
MIZ004>006-011>014-085-260100-
CENTRAL UPPER MICHIGAN

CITY           SKY/WX    TMP DP  RH WIND       PRES   REMARKS
MANISTIQUE     CLOUDY    60  55  84 N6        29.70R
6HR MIN TEMP:  55; 6HR MAX TEMP:  68;

ESCANABA       CLOUDY    57  52  83 E6        29.71R
6HR MIN TEMP:  57; 6HR MAX TEMP:  70;

MENOMINEE      PTSUNNY   63  51  65 NE5       29.69R
6HR MIN TEMP:  62; 6HR MAX TEMP:  67;

SAWYER-GWINN   SUNNY     59  46  63 NE12      29.73R
$$
MIZ001>003-009>011-084-260100-
WESTERN UPPER MICHIGAN

CITY           SKY/WX    TMP DP  RH WIND       PRES   REMARKS
IRON MOUNTAIN  SUNNY     69  42  37 NE8       29.67R
6HR MIN TEMP:  67; 6HR MAX TEMP:  73;

HOUGHTON       SUNNY     63  45  51 E7        29.71S
6HR MIN TEMP:  62; 6HR MAX TEMP:  67;

COPPER HARBOR    N/A     47  41  80 CALM      29.73S
6HR MIN TEMP:  46; 6HR MAX TEMP:  51;

IRONWOOD       SUNNY     69  48  47 E7        29.68S
6HR MIN TEMP:  64; 6HR MAX TEMP:  70; 6HR PCP:  0.01;

$$

ABBREVIATIONS USED IN REMARKS
   TC - TEMPERATURE IN CELSIUS
  WCI - WIND CHILL INDEX
   HX - HEAT INDEX
  VSB - VISIBILITY




USA.gov is the U.S. government's official web portal to all federal, state and local government web resources and services.